Lapse_Rate
6.3 6.5 6.4 6.4 6.7 6.7 6.9 6.9 6.9 6.6 6.5 6.5 6.4 6.5 6.4 6.4 6.5 6.5 6.5 6.4 6.0 6.1 6.1 5.5 5.4 5.5 5.8 6.4 6.6 6.9 6.8 7.1 6.9 6.8 6.5 6.9 6.8 6.2 6.6 7.0 6.2 6.4 6.4 6.5 6.3
6.3 6.4 6.4 6.4 6.8 6.9 6.9 6.9 6.9 6.8 6.5 6.6 6.5 6.4 6.5 6.5 6.6 6.6 6.5 6.3 6.2 6.1 5.8 5.3 6.2 6.4 6.2 6.0 6.5 6.8 7.2 7.0 6.9 7.3 6.9 6.9 7.0 6.3 6.6 7.0 6.2 6.3 6.1 6.1 6.3
6.3 6.3 6.4 6.5 6.8 7.0 7.0 7.0 7.0 6.7 6.5 6.6 6.5 6.3 6.4 6.4 6.3 6.3 6.5 6.3 5.9 5.7 5.8 6.2 6.7 6.6 6.7 6.5 6.4 6.3 6.7 6.7 6.8 7.0 6.9 7.0 6.9 6.5 7.0 6.3 6.4 6.6 6.7 6.1 5.6
6.2 6.3 6.4 6.5 6.8 7.0 7.0 7.1 7.1 6.9 6.5 6.5 6.5 6.4 6.4 6.4 6.5 6.5 6.4 6.4 6.1 6.2 6.3 6.5 6.7 6.6 6.4 6.7 6.8 7.0 7.2 6.8 6.4 6.3 7.0 6.9 7.1 6.9 6.9 7.0 6.7 6.6 6.5 6.4 5.9
6.3 6.2 6.4 6.5 6.7 6.9 7.0 7.1 7.0 6.9 6.7 6.5 6.5 6.4 6.5 6.4 6.5 6.7 6.4 6.4 6.4 6.4 6.5 6.8 6.4 6.2 6.4 6.6 6.7 6.5 7.1 7.3 7.2 7.1 7.2 6.8 6.7 6.4 6.7 6.7 6.5 6.2 6.2 6.1 6.3
6.4 6.3 6.3 6.4 6.5 6.7 6.8 7.0 7.0 6.9 6.6 6.4 6.4 6.4 6.5 6.6 6.7 6.9 6.5 6.2 6.4 6.5 6.7 6.8 6.6 6.6 6.4 6.9 6.8 6.8 6.9 6.8 7.1 7.2 7.2 7.2 6.9 6.8 6.6 6.7 6.4 6.2 6.1 6.0 5.9
6.5 6.3 6.4 6.4 6.5 6.6 6.7 6.9 6.9 7.0 6.6 6.5 6.3 6.2 6.3 6.5 6.4 6.6 6.3 6.1 6.2 6.6 6.6 6.8 6.4 7.0 6.9 6.5 6.5 6.7 7.1 7.3 7.4 7.5 7.3 7.2 7.3 6.4 6.6 6.5 6.6 6.3 6.0 5.8 5.6
6.5 6.4 6.4 6.3 6.4 6.5 6.7 6.8 6.9 6.9 6.7 6.6 6.3 6.2 6.1 6.2 6.5 6.4 6.1 6.1 6.2 6.6 6.7 7.0 6.4 6.5 6.5 6.6 6.6 6.9 7.2 7.4 7.3 7.0 7.2 7.4 7.1 7.0 6.8 6.6 6.6 6.4 6.1 5.7 5.4
6.5 6.5 6.4 6.3 6.3 6.4 6.6 6.8 6.9 6.8 6.7 6.8 6.5 6.3 6.4 6.4 6.5 6.3 6.2 6.3 6.4 6.6 6.7 6.0 6.7 6.9 6.6 6.9 6.7 6.9 6.9 7.2 7.4 7.4 7.0 7.2 6.9 6.7 6.8 7.0 6.4 6.6 6.1 5.5 5.4
6.5 6.5 6.5 6.3 6.3 6.4 6.5 6.7 6.7 6.5 6.5 6.5 6.5 6.3 6.4 6.5 6.5 6.2 6.2 6.0 5.9 5.9 6.6 6.8 6.7 7.0 6.8 7.1 7.2 7.2 7.9 7.2 7.8 7.5 7.3 6.9 7.5 7.2 6.5 6.4 6.2 6.5 6.3 5.8 5.7
6.6 6.6 6.5 6.4 6.3 6.4 6.5 6.5 6.2 6.1 6.2 6.3 6.6 6.6 6.2 5.8 6.4 6.4 6.4 6.4 6.3 6.7 7.1 7.2 7.0 6.9 7.1 6.5 6.7 6.5 7.2 7.7 7.6 7.3 6.5 7.2 6.8 6.9 6.6 6.7 6.2 6.0 5.6 5.6 5.6
6.6 6.6 6.5 6.3 6.2 6.1 6.2 6.1 6.0 6.5 6.7 6.8 6.8 6.9 6.3 5.9 6.8 6.4 6.2 6.3 6.6 6.8 7.2 7.3 6.9 6.8 6.6 6.9 7.1 6.5 7.3 7.8 7.6 7.0 7.2 7.0 6.5 6.7 6.7 7.1 6.9 6.2 5.8 6.0 5.7
6.7 6.6 6.5 6.3 6.0 5.9 6.0 6.1 5.8 6.1 6.6 6.8 6.9 6.7 6.7 6.6 6.8 6.6 6.5 6.8 7.5 7.5 8.0 7.8 7.3 7.1 7.4 7.4 7.2 7.2 7.5 8.0 7.6 7.5 7.3 6.5 6.7 7.3 7.2 7.0 7.3 7.0 6.8 6.5 6.1
6.7 6.6 6.4 6.3 6.1 6.1 6.0 5.7 6.0 6.5 6.9 7.0 6.8 6.6 6.5 6.8 6.6 6.6 7.1 7.1 7.4 7.5 7.7 8.0 7.8 7.4 7.1 7.3 7.5 7.0 8.1 8.2 7.5 7.3 7.2 6.5 6.9 7.2 7.5 7.5 6.8 6.7 7.4 7.3 6.7
6.7 6.6 6.4 6.2 6.1 5.9 5.9 5.9 6.1 6.4 6.4 7.3 7.0 6.8 6.8 6.8 6.8 6.5 6.7 7.1 7.2 7.1 7.2 7.4 7.7 7.3 7.5 7.3 7.1 7.9 6.9 7.3 7.7 7.3 7.4 7.4 6.9 7.8 7.3 7.3 7.2 6.8 6.4 6.5 7.4
6.7 6.6 6.4 6.2 6.1 6.2 6.3 6.6 6.6 6.2 6.6 7.1 7.1 6.9 6.7 6.9 6.8 6.6 6.6 6.6 7.1 6.8 7.1 7.7 7.4 8.1 8.2 7.6 7.7 7.3 7.6 7.1 7.4 6.9 6.7 8.5 7.4 7.6 7.4 8.0 7.0 6.6 6.7 6.6 6.9
6.6 6.6 6.5 6.3 6.3 6.6 7.0 6.7 6.4 6.3 7.2 7.3 7.2 7.3 7.2 7.4 7.5 7.0 6.8 7.0 7.8 7.6 7.6 7.9 7.8 7.7 8.0 7.8 7.7 7.7 8.2 7.7 7.0 6.5 6.6 7.9 7.0 8.3 7.6 7.9 7.7 6.9 6.7 7.2 6.8
6.6 6.6 6.5 6.5 6.4 6.7 7.0 6.9 6.7 7.0 7.0 7.3 7.6 7.7 7.8 7.4 8.0 7.8 7.4 7.6 7.9 8.1 8.0 7.9 8.1 8.3 8.7 8.6 8.8 8.4 8.1 7.6 6.8 6.8 7.1 6.9 6.9 8.2 8.2 7.9 7.4 7.2 6.5 6.8 7.8
6.5 6.5 6.5 6.4 6.5 6.6 7.0 7.4 7.3 7.3 7.6 8.2 7.9 7.6 7.4 7.9 8.0 8.2 8.8 8.5 8.7 9.1 8.6 8.4 8.7 8.9 8.8 8.7 8.6 8.6 8.7 9.3 8.6 8.8 7.3 7.3 8.0 8.4 8.4 7.6 7.3 7.1 7.4 8.3 7.8
6.2 6.2 6.4 6.7 6.7 6.8 7.0 7.0 6.9 7.2 7.5 7.8 7.9 7.8 8.0 8.0 8.1 8.3 9.0 9.2 9.3 9.4 9.4 9.4 9.1 8.8 8.8 9.0 9.2 9.0 9.0 8.8 9.1 8.1 8.1 7.8 8.0 8.7 8.7 8.0 7.4 7.7 8.3 8.4 7.4
6.4 6.5 6.4 6.6 6.9 6.9 7.0 7.0 7.0 7.3 7.1 7.3 7.4 7.5 7.9 8.3 8.2 8.3 8.5 8.9 9.2 9.3 9.3 9.1 9.2 9.0 9.0 9.2 8.9 8.9 8.6 8.7 8.4 8.7 7.7 7.1 8.3 8.8 8.8 8.4 8.0 8.2 8.5 8.3 7.9
5.9 6.0 6.1 6.3 6.5 6.3 6.4 6.3 6.4 6.8 6.9 7.0 7.1 7.2 7.2 7.4 7.8 8.4 8.4 8.6 8.7 8.8 8.9 9.0 9.0 9.0 9.0 9.3 9.1 9.3 8.7 8.7 8.5 8.5 8.6 8.1 8.4 8.7 8.7 8.6 8.3 8.8 9.0 8.8 8.8
5.7 5.8 5.8 6.0 6.2 6.0 6.1 6.3 6.7 6.8 6.8 6.9 7.0 7.0 7.0 7.2 7.5 7.9 8.4 8.3 8.5 8.6 8.7 8.7 8.8 8.6 8.6 8.9 9.2 9.0 8.8 8.7 8.6 8.5 8.5 7.9 8.3 8.2 8.2 8.1 8.3 8.2 8.4 8.7 9.0
5.6 5.6 5.6 5.8 5.8 5.8 6.2 6.6 6.6 6.7 6.6 6.7 6.9 7.0 6.9 7.1 7.2 7.3 7.5 7.8 8.0 8.2 8.2 8.4 8.4 8.4 8.4 8.5 8.3 8.4 8.5 8.5 8.4 8.5 8.5 8.4 8.5 8.5 8.3 8.1 8.3 8.3 8.6 8.8 8.7
5.5 5.7 5.8 5.8 5.8 5.9 6.1 6.4 6.6 6.3 6.5 6.7 6.7 6.5 6.5 6.8 7.0 7.2 7.2 7.5 7.7 7.8 7.8 7.9 7.9 8.0 8.1 8.1 8.3 8.5 8.6 8.4 8.3 8.4 8.5 8.5 8.4 8.7 8.6 8.2 7.7 8.1 8.5 8.6 8.6
5.6 5.7 5.8 5.8 5.9 6.0 6.1 6.3 6.2 6.2 6.3 6.4 6.4 6.4 6.4 6.5 6.5 6.8 6.8 7.0 7.1 7.5 7.8 8.1 8.5 8.6 8.3 8.4 8.6 8.5 8.7 9.0 8.7 8.3 8.2 8.4 8.5 8.6 8.6 7.8 8.3 8.3 8.1 8.1 8.2
5.8 6.0 5.9 5.8 6.0 6.0 5.8 6.1 6.2 6.4 6.3 6.3 6.4 6.5 6.1 6.3 6.3 6.5 6.6 6.8 6.9 7.1 7.7 8.3 8.8 8.7 8.3 8.9 8.6 8.6 9.1 8.6 8.4 8.5 8.5 8.5 8.5 8.2 7.8 7.9 8.0 8.2 8.4 8.3 8.1
Wind_Speed
14 13 13 13 13 13 14 14 13 13 12 12 12 13 14 15 17 3 4 8 7 18 5 2 5 9 8 4 2 3 3 3 4 6 8 12 12 15 10 16 9 5 12 13 20
15 14 13 14 14 14 14 15 14 13 12 12 12 12 13 14 2 6 7 11 9 19 3 3 11 13 2 3 1 2 1 5 3 2 5 16 18 11 9 10 13 17 9 9 20
15 15 14 14 14 15 14 15 14 13 12 12 12 12 12 10 2 6 13 16 16 15 2 2 5 4 4 2 1 2 4 3 6 6 7 13 14 8 18 13 22 20 16 10 11
15 16 15 14 14 15 15 15 14 13 13 11 12 12 14 2 2 1 10 17 10 7 1 2 5 3 2 4 5 3 9 9 8 11 10 10 10 9 14 10 20 21 19 13 9
15 16 15 14 15 15 15 14 14 12 12 12 10 10 2 1 7 6 13 11 7 3 3 3 5 3 1 1 4 3 7 6 7 6 4 13 5 7 13 20 18 18 17 15 12
16 17 16 15 15 15 14 14 13 13 11 10 9 9 1 2 1 12 9 7 5 4 3 4 5 6 3 1 4 5 11 11 7 6 9 10 3 8 16 20 18 18 15 13 12
17 17 16 16 15 15 15 15 13 12 10 8 6 3 0 9 5 11 9 6 6 7 4 7 7 5 2 3 4 10 9 4 4 7 4 10 5 10 18 19 19 16 14 13 12
18 18 17 16 15 16 16 16 14 11 9 7 3 2 6 3 13 7 5 4 8 7 7 8 5 3 1 5 5 4 4 4 4 7 3 7 4 4 19 19 17 17 15 14 10
20 19 17 15 15 16 17 16 13 6 4 3 2 0 7 4 7 8 8 5 7 5 5 4 3 3 5 7 3 5 1 2 6 3 3 4 3 6 12 17 16 15 14 12 7
20 19 17 15 15 17 20 9 1 7 2 4 4 2 4 6 6 5 8 10 3 3 4 6 5 4 4 8 4 3 2 1 4 1 13 4 1 7 5 8 8 12 13 12 11
21 19 17 14 14 14 9 2 3 2 2 7 6 5 1 5 4 6 7 5 4 8 3 5 6 6 4 10 8 6 3 5 5 6 2 5 4 3 6 8 7 9 6 7 9
21 18 16 13 12 10 2 3 6 4 6 14 8 8 7 5 6 8 5 5 4 2 2 4 5 4 1 4 3 3 4 5 4 4 4 14 7 1 5 5 6 6 3 2 5
21 18 14 11 9 3 3 8 7 10 1 6 7 5 6 10 8 8 6 3 1 3 3 5 10 7 9 4 1 9 4 4 4 3 12 5 6 4 3 9 11 10 8 5 3
21 16 11 8 4 2 5 7 2 5 5 6 2 5 5 5 3 6 5 7 4 3 3 4 4 15 10 4 7 1 9 13 9 4 3 2 4 7 9 5 8 14 10 7 6
20 13 7 2 2 2 7 7 2 4 4 3 4 3 9 8 5 6 6 5 9 8 4 6 3 11 9 9 8 9 10 1 3 4 6 5 3 7 5 5 10 10 3 4 5
20 10 1 2 1 8 13 10 4 6 4 3 8 6 6 3 2 15 12 8 4 4 2 8 4 3 5 4 20 2 4 3 3 3 3 5 4 4 5 6 5 7 10 11 12
19 9 5 3 4 5 7 5 5 3 4 5 6 5 7 6 3 11 11 11 6 2 6 3 3 3 0 9 5 6 4 2 3 1 6 2 5 9 5 3 13 14 10 9 10
20 4 9 5 13 9 5 5 2 5 3 1 6 4 8 7 7 7 15 12 10 6 3 4 5 7 4 5 5 2 6 5 6 5 3 2 6 6 4 7 11 15 13 17 19
17 1 2 5 11 3 5 4 6 3 3 4 5 4 5 4 5 7 10 16 11 16 9 7 6 2 5 5 5 3 5 8 3 2 3 5 4 4 2 3 8 8 11 9 4
1 2 4 6 11 5 5 4 4 4 2 6 4 2 3 3 3 5 1 4 7 5 5 7 2 6 2 4 4 6 1 4 3 2 4 3 3 5 9 8 2 3 13 14 8
2 3 4 7 5 5 2 6 5 4 4 3 1 1 3 1 2 4 3 4 4 6 7 4 3 5 4 4 4 5 4 2 2 5 5 2 5 6 11 11 14 8 10 10 10
2 2 4 5 3 1 2 5 5 3 6 2 1 1 2 4 3 5 4 2 2 2 3 2 5 0 4 3 4 5 5 5 4 8 2 4 5 7 7 10 13 11 12 8 8
2 3 3 6 2 2 6 6 5 1 1 2 3 2 3 4 5 3 5 6 5 4 6 3 1 3 10 9 4 4 1 5 4 3 1 4 5 3 5 7 6 10 10 11 8
3 3 4 4 1 2 3 5 6 8 1 1 1 4 6 6 2 4 9 5 5 3 4 8 3 6 6 8 3 7 9 4 4 2 3 6 4 5 7 7 8 7 7 8 7
3 1 2 3 4 5 0 2 6 6 5 10 9 8 3 7 6 6 4 9 8 5 6 5 2 1 4 6 2 2 5 9 4 7 4 5 10 11 13 12 6 7 7 9 8
3 3 4 3 5 5 4 3 5 5 4 4 6 7 6 4 4 3 3 3 3 6 4 3 2 1 3 6 6 3 7 7 7 4 2 7 2 4 11 10 8 11 11 11 10
4 4 3 5 6 6 5 3 6 3 4 4 4 4 4 1 1 2 4 4 6 3 2 1 3 2 6 6 5 5 7 9 6 2 4 6 4 8 10 8 10 10 12 15 16
Wind_Direction
332 333 335 336 335 334 330 329 330 331 329 327 329 327 325 330 311 168 241 224 185 186 205 266 220 58 46 60 82 126 49 281 233 137 119 115 114 160 139 134 155 215 138 143 152
332 333 336 334 332 329 327 325 326 327 327 327 327 322 325 333 287 243 239 173 153 163 171 219 89 76 45 74 59 91 164 252 123 56 101 129 133 145 128 144 109 114 126 136 138
333 331 334 333 331 325 322 320 322 322 324 324 322 321 322 322 294 247 199 171 169 167 211 98 112 100 92 116 158 166 226 233 214 164 174 138 153 128 130 144 148 148 150 155 134
333 328 333 333 329 323 321 319 319 319 319 322 320 321 320 255 154 343 132 160 156 194 304 242 141 68 141 198 186 265 242 250 96 233 176 158 155 151 147 166 154 149 151 158 166
334 329 332 332 326 322 319 318 316 316 315 318 320 325 296 45 252 154 125 133 132 143 233 200 137 145 185 212 152 224 280 298 116 125 102 105 46 153 122 140 146 146 152 169 179
336 330 332 330 326 323 319 316 314 312 311 310 315 320 294 294 193 150 133 131 155 168 215 249 200 189 130 153 146 215 258 273 151 141 101 105 101 106 139 143 150 155 167 182 186
337 331 333 328 325 321 315 313 311 307 303 297 301 288 355 236 162 157 154 174 178 191 219 241 182 66 105 333 350 310 290 122 155 142 128 110 35 124 149 151 155 165 176 194 206
336 332 331 326 323 317 312 309 305 297 290 273 270 250 246 225 146 157 189 238 225 223 226 128 229 110 46 271 3 359 50 7 337 24 72 76 237 123 157 156 166 174 182 197 212
338 331 329 326 323 316 309 307 297 278 286 168 185 103 270 91 160 210 172 215 227 241 238 354 159 73 55 15 12 344 241 273 311 132 197 85 208 233 172 167 171 177 189 199 190
336 331 327 325 323 317 310 280 230 316 176 208 259 322 285 203 179 215 197 216 249 69 53 31 48 76 46 35 299 291 188 162 248 219 1 346 318 314 31 37 185 188 193 205 165
337 330 324 322 319 325 343 56 31 16 246 197 195 210 237 246 124 204 208 156 88 56 47 328 60 88 102 203 239 287 278 181 221 358 343 236 217 274 127 73 4 330 250 225 179
337 330 324 317 314 324 295 168 212 154 298 221 217 268 274 227 165 212 86 82 60 186 86 34 108 134 97 22 183 237 232 248 7 76 108 25 342 343 46 161 189 236 182 188 340
338 334 325 316 316 295 207 232 113 34 106 289 189 194 211 161 170 213 93 144 77 97 161 146 156 125 85 87 141 259 241 200 140 19 70 42 309 328 252 232 215 213 199 170 200
337 335 328 314 321 265 259 266 315 138 59 282 203 255 148 127 171 163 140 130 46 262 26 279 138 158 142 163 183 328 249 257 123 96 150 134 273 243 224 248 273 240 210 214 98
334 336 327 249 308 188 244 353 355 64 44 185 209 189 159 155 182 177 163 62 160 181 153 257 254 155 205 228 177 231 347 358 149 188 133 211 158 262 44 270 247 254 308 9 54
329 328 303 169 237 245 310 299 59 52 260 218 183 141 118 230 199 165 184 69 115 93 291 257 31 298 220 38 189 70 4 328 64 77 328 231 128 255 205 216 121 43 28 14 351
323 309 195 294 226 358 323 40 46 128 295 186 166 147 162 220 240 171 176 205 174 149 240 329 291 202 123 127 159 172 114 31 337 120 224 148 116 252 169 143 132 117 99 95 27
320 286 216 232 265 12 28 52 81 244 233 44 153 129 175 191 245 165 179 209 239 208 110 165 298 198 176 177 213 48 140 171 206 218 235 337 227 254 102 136 131 142 137 137 122
322 206 241 253 228 120 65 61 216 272 335 23 50 102 302 303 196 218 182 207 220 207 195 167 249 275 189 148 164 143 177 191 210 13 111 202 279 281 146 155 115 145 137 124 157
44 22 262 235 124 64 73 238 254 275 56 46 62 84 38 312 19 147 220 289 252 211 177 216 81 229 79 97 267 200 351 355 16 258 274 264 262 235 198 165 94 234 113 118 105
46 36 254 145 76 53 158 235 273 275 55 84 267 326 293 72 136 13 312 279 15 34 73 100 99 281 135 185 178 6 15 284 140 145 215 202 251 322 186 167 154 147 103 102 103
47 45 277 86 60 89 204 208 278 331 22 306 308 65 359 9 40 48 359 257 315 68 93 287 128 62 264 243 207 148 165 118 96 308 293 179 286 344 127 141 140 131 119 105 92
86 253 340 94 143 284 291 287 228 126 38 34 24 46 56 19 10 15 344 276 158 134 160 199 41 25 343 347 5 51 358 148 146 109 264 96 271 41 64 83 105 116 111 113 115
78 39 331 38 145 184 300 311 346 340 32 57 46 50 19 348 56 333 349 337 315 49 107 85 104 150 192 219 210 312 341 5 115 114 207 206 212 237 207 133 114 103 100 105 101
34 317 168 298 316 317 223 304 342 356 18 19 14 14 302 26 22 11 350 348 8 19 22 80 33 18 238 237 208 234 328 328 335 251 185 246 192 211 184 141 120 105 112 116 127
69 39 345 282 311 9 356 340 68 349 20 20 56 17 46 109 147 306 19 31 272 348 24 12 289 148 278 290 328 319 316 323 322 307 121 127 270 325 107 120 131 155 159 158 163
324 340 98 295 341 36 324 351 47 21 333 120 59 39 17 342 146 239 205 221 219 218 263 167 122 59 274 275 341 352 285 283 283 359 264 186 160 132 122 146 172 182 184 181 178